Other Surface Observations
Issued by NWS

Home | Current Version | Previous Version | Text Only | Print | Product List | Glossary On
Versions: 1 2 3 4 5 6 7 8 9 10 11 12 13 14 15 16 17 18 19 20 21 22 23 24 25 26 27 28 29 30 31 32 33 34 35 36 37 38 39 40 41 42 43 44 45 46 47 48 49 50
000
SXUS52 KTAE 201218
OSOTAE
OSOTAE
North Florida/South Alabama/Southwest Georgia Weather Roundup
National Weather Service Tallahassee Florida
800 AM EDT SUN MAY 20 2018

Note: "fair" indicates few or no clouds below 12,000 feet with no
significant weather and/or obstructions to visibility.

!FLZ017-115-028-034-025-201300
...North Florida...

CITY           SKY/WX    TMP DP  RH WIND       PRES   REMARKS
TALLAHASSEE    CLOUDY    73  70  90 SE6       30.09R
APALACHICOLA   FAIR      73  73 100 NE5       30.07R
PERRY          CLOUDY    73  69  88 SE6       30.12R
CROSS CITY     PTSUNNY   70 N/A N/A CALM      30.11R
JACKSONVILLE   PTSUNNY   72  69  90 CALM      30.14R
$$

!FLZ112-006-005-002-011-201300
...Florida Panhandle...

CITY           SKY/WX    TMP DP  RH WIND       PRES   REMARKS
MARIANNA       FAIR      73  72  96 CALM      30.08S
BONIFAY        FAIR      73  71  93 CALM      30.09S FOG
PANAMA CITY NW FAIR      71  70  96 CALM      30.07S
TYNDALL AFB    FAIR      73  73 100 CALM      30.08R
TYND DRONE APT FAIR      72  71  98 CALM      30.08R
DE FUNIAK SPR  CLOUDY    72  72  98 S6        30.09S FOG
EGLIN AFB      PTSUNNY   73  71  93 CALM      30.07R
DESTIN         PTSUNNY   77  74  90 NE3       30.07R
HURLBURT       MOSUNNY   71  70  96 CALM      30.06R
CRESTVIEW      CLOUDY    73  71  93 CALM      30.09S FOG
PENSACOLA      FAIR      76  72  87 NE5       30.07R
$$

!ALZ063-066-201300
...South Alabama...

CITY           SKY/WX    TMP DP  RH WIND       PRES   REMARKS
DOTHAN         FAIR      74  71  91 CALM      30.12S FOG
OZARK CAIRNS   FAIR      72  71  96 CALM      30.09R
FT RUCKER HELI PTSUNNY   72  70  94 CALM      30.10R
RUCKER HELI 3  CLOUDY    72  70  94 NE3       30.10R
RUCKER HELI 2  CLOUDY    70  70  98 NW3       30.09R
FLORALA APT    FAIR      73  70  90 CALM      30.11R FOG
ANDALUSIA      PTSUNNY   73  69  87 CALM      30.09S FOG
TROY           FAIR      69  67  93 CALM      30.10S FOG
EUFALA         FAIR      73  71  93 CALM      30.08S
MOBILE         FAIR      74  71  91 CALM      30.07S
$$

!GAZ120>161-201300
...Southwest and South Central Georgia...

CITY           SKY/WX    TMP DP  RH WIND       PRES   REMARKS
THOMASVILLE    PTSUNNY  N/A N/A N/A CALM      30.12S
BAINBRIDGE     FAIR      73  73 100 CALM      30.10R
MOODY AFB      FAIR      70  70  99 E6        30.11R
VALDOSTA       FAIR      70  69  97 SE5       30.13R
MOULTRIE       FAIR      72  68  88 SE5       30.12S
BLAKELY        FAIR      72  70  94 CALM      30.09S
ALBANY         FAIR      73  71  93 CALM      30.11R
TIFTON         FAIR     N/A N/A N/A SE3       30.11S
FITZGERALD     FAIR      73  72  97 CALM      30.14S
CORDELE        FAIR      75  71  87 CALM      30.12R
AMERICUS       FAIR      70  64  83 CALM      30.12R
HOMERVILLE     FAIR      70  70 100 SE3       30.14R
$$

!GMZ750-755-770-775-201300
...Coastal and Buoy Obs...

STATION/POSITION TIME  TEMP    WIND        PRES    VSBY  WAVE
                       AIR SEA DIR/SP/G                  HT/PER
                 (UTC) (F)     (DEG/KT/KT) (MB)    (MI)  (FT/S)
KEATON BEACH     1200   71      70/  9/ 10 1019.9R
CEDAR KEY        1200   72     110/ 10/ 12 1019.4R
C TOWER          1200   76      70/  8/  8 1018.7R
APALACHICOLA BUO NOT AVBL
PANAMA CITY BUOY 1150   78 79   60/  6/  8 1017.3R         1/ 9
MOBILE BUOY      1200      83  110/  8/ 12 1017.7
ORANGE BCH AL BU 1200   80      90/  6/  8 1017.9
$$




USA.gov is the U.S. government's official web portal to all federal, state and local government web resources and services.